| time (UTC) | temp F | wind direction | speed MPH | gust MPH | rain 1hr in | rain 24hr in | rain mn in | humidity % | barometer mb |
| 20260906214610 | 84 | 32 | 6.0 | 16.0 | 0.00 | 0.00 | 0.00 | 35 | 1019.5 |
| 20260906214536 | 84 | 109 | 7.0 | 17.0 | 0.00 | 0.00 | 0.00 | 35 | 1020.2 |
| 20260906214104 | 84 | 144 | 5.0 | 11.0 | 0.00 | 0.00 | 0.00 | 35 | 1019.6 |
| 20260906213557 | 85 | 113 | 5.0 | 14.0 | 0.00 | 0.00 | 0.00 | 35 | 1019.6 |
| 20260906213053 | 85 | 126 | 5.0 | 14.0 | 0.00 | 0.00 | 0.00 | 33 | 1019.7 |
| 20260906213030 | 85 | 136 | 6.0 | 16.0 | 0.00 | 0.00 | 0.00 | 33 | 1020.3 |
| 20260906212546 | 85 | 150 | 5.0 | 14.0 | 0.00 | 0.00 | 0.00 | 35 | 1019.7 |
| 20260906212040 | 85 | 122 | 4.0 | 14.0 | 0.00 | 0.00 | 0.00 | 33 | 1019.7 |
| 20260906211535 | 84 | 90 | 5.0 | 12.0 | 0.00 | 0.00 | 0.00 | 37 | 1019.7 |
| 20260906211533 | 84 | 123 | 2.0 | 13.0 | 0.00 | 0.00 | 0.00 | 37 | 1020.4 |
| 20260906211029 | 85 | 115 | 5.0 | 13.0 | 0.00 | 0.00 | 0.00 | 35 | 1019.8 |
| 20260906210017 | 85 | 8 | 5.0 | 13.0 | 0.00 | 0.00 | 0.00 | 37 | 1019.9 |
| 20260906205512 | 85 | 156 | 5.0 | 11.0 | 0.00 | 0.00 | 0.00 | 37 | 1020.1 |
| 20260906205005 | 85 | 152 | 5.0 | 12.0 | 0.00 | 0.00 | 0.00 | 37 | 1020.1 |
| 20260906204524 | 85 | 193 | 4.0 | 14.0 | 0.00 | 0.00 | 0.00 | 34 | 1020.9 |
| 20260906204459 | 85 | 157 | 5.0 | 12.0 | 0.00 | 0.00 | 0.00 | 35 | 1020.1 |
| 20260906203951 | 85 | 131 | 5.0 | 12.0 | 0.00 | 0.00 | 0.00 | 36 | 1020.1 |
| 20260906203446 | 85 | 150 | 5.0 | 11.0 | 0.00 | 0.00 | 0.00 | 39 | 1020.2 |
| 20260906203029 | 84 | 182 | 4.0 | 13.0 | 0.00 | 0.00 | 0.00 | 37 | 1020.9 |
| 20260906202940 | 84 | 158 | 6.0 | 13.0 | 0.00 | 0.00 | 0.00 | 37 | 1020.3 |
| 20260906202433 | 84 | 126 | 6.0 | 13.0 | 0.00 | 0.00 | 0.00 | 38 | 1020.2 |
| 20260906201928 | 84 | 70 | 5.0 | 14.0 | 0.00 | 0.00 | 0.00 | 39 | 1020.2 |
| 20260906201538 | 84 | 71 | 9.0 | 15.0 | 0.00 | 0.00 | 0.00 | 37 | 1021.1 |
| 20260906200925 | 85 | 105 | 4.0 | 12.0 | 0.00 | 0.00 | 0.00 | 38 | 1020.2 |
| 20260906200426 | 85 | 86 | 4.0 | 11.0 | 0.00 | 0.00 | 0.00 | 38 | 1020.2 |
| 20260906200018 | 84 | 84 | 1.0 | 12.0 | 0.00 | 0.00 | 0.00 | 38 | 1021.1 |
| 20260906195926 | 84 | 130 | 5.0 | 11.0 | 0.00 | 0.00 | 0.00 | 38 | 1020.3 |
| 20260906195426 | 84 | 137 | 4.0 | 10.0 | 0.00 | 0.00 | 0.00 | 38 | 1020.4 |
| 20260906194534 | 83 | 123 | 3.0 | 14.0 | 0.00 | 0.00 | 0.00 | 38 | 1021.3 |
| 20260906194424 | 83 | 68 | 5.0 | 13.0 | 0.00 | 0.00 | 0.00 | 38 | 1020.6 |
| 20260906193926 | 84 | 131 | 5.0 | 13.0 | 0.00 | 0.00 | 0.00 | 37 | 1020.7 |
| 20260906193026 | 84 | 148 | 4.0 | 11.0 | 0.00 | 0.00 | 0.00 | 35 | 1021.4 |
| 20260906192926 | 85 | 145 | 4.0 | 10.0 | 0.00 | 0.00 | 0.00 | 35 | 1020.7 |
| 20260906192427 | 84 | 165 | 5.0 | 12.0 | 0.00 | 0.00 | 0.00 | 37 | 1020.7 |
| 20260906191924 | 84 | 72 | 4.0 | 12.0 | 0.00 | 0.00 | 0.00 | 36 | 1020.7 |
| 20260906191529 | 83 | 123 | 2.0 | 11.0 | 0.00 | 0.00 | 0.00 | 36 | 1021.5 |
| 20260906191424 | 84 | 150 | 4.0 | 9.0 | 0.00 | 0.00 | 0.00 | 37 | 1020.7 |
| 20260906190922 | 83 | 150 | 5.0 | 12.0 | 0.00 | 0.00 | 0.00 | 36 | 1020.9 |
| 20260906190422 | 84 | 101 | 4.0 | 12.0 | 0.00 | 0.00 | 0.00 | 35 | 1021.0 |
| 20260906190033 | 83 | 96 | 6.0 | 13.0 | 0.00 | 0.00 | 0.00 | 36 | 1021.8 |
| 20260906185923 | 84 | 86 | 4.0 | 9.0 | 0.00 | 0.00 | 0.00 | 36 | 1021.0 |
| 20260906184916 | 84 | 82 | 4.0 | 12.0 | 0.00 | 0.00 | 0.00 | 33 | 1021.3 |
| 20260906184528 | 83 | 92 | 3.0 | 15.0 | 0.00 | 0.00 | 0.00 | 35 | 1022.2 |
| 20260906184410 | 84 | 115 | 4.0 | 14.0 | 0.00 | 0.00 | 0.00 | 36 | 1021.4 |
| 20260906183358 | 84 | 29 | 2.0 | 7.0 | 0.00 | 0.00 | 0.00 | 33 | 1021.7 |
| 20260906183033 | 83 | 63 | 2.0 | 9.0 | 0.00 | 0.00 | 0.00 | 34 | 1022.5 |
| 20260906182856 | 84 | 162 | 2.0 | 8.0 | 0.00 | 0.00 | 0.00 | 35 | 1021.7 |
| 20260906182355 | 83 | 153 | 3.0 | 9.0 | 0.00 | 0.00 | 0.00 | 35 | 1021.8 |
| 20260906181858 | 83 | 181 | 4.0 | 9.0 | 0.00 | 0.00 | 0.00 | 37 | 1021.8 |
| 20260906181551 | 82 | 104 | 5.0 | 10.0 | 0.00 | 0.00 | 0.00 | 35 | 1022.6 |
| 20260906181357 | 83 | 124 | 3.0 | 7.0 | 0.00 | 0.00 | 0.00 | 36 | 1021.9 |
| 20260906180855 | 83 | 70 | 3.0 | 7.0 | 0.00 | 0.00 | 0.00 | 37 | 1022.1 |
| 20260906180032 | 83 | 106 | 3.0 | 8.0 | 0.00 | 0.00 | 0.00 | 36 | 1022.9 |
| 20260906175855 | 83 | 67 | 3.0 | 7.0 | 0.00 | 0.00 | 0.00 | 36 | 1022.3 |
| 20260906175357 | 83 | 120 | 2.0 | 6.0 | 0.00 | 0.00 | 0.00 | 35 | 1022.3 |
| 20260906174533 | 82 | 119 | 3.0 | 10.0 | 0.00 | 0.00 | 0.00 | 37 | 1023.1 |
| 20260906174355 | 82 | 110 | 4.0 | 9.0 | 0.00 | 0.00 | 0.00 | 38 | 1022.4 |
| 20260906173854 | 82 | 53 | 2.0 | 8.0 | 0.00 | 0.00 | 0.00 | 38 | 1022.4 |
| 20260906173027 | 82 | 58 | 0.0 | 4.0 | 0.00 | 0.00 | 0.00 | 36 | 1023.2 |
| 20260906172855 | 82 | 68 | 1.0 | 4.0 | 0.00 | 0.00 | 0.00 | 36 | 1022.5 |
| 20260906172349 | 82 | 136 | 2.0 | 6.0 | 0.00 | 0.00 | 0.00 | 37 | 1022.7 |
| 20260906171849 | 82 | 160 | 3.0 | 9.0 | 0.00 | 0.00 | 0.00 | 36 | 1022.7 |
| 20260906171534 | 81 | 171 | 3.0 | 10.0 | 0.00 | 0.00 | 0.00 | 36 | 1023.5 |
| 20260906171350 | 81 | 150 | 3.0 | 9.0 | 0.00 | 0.00 | 0.00 | 39 | 1022.7 |
| 20260906170850 | 81 | 47 | 3.0 | 6.0 | 0.00 | 0.00 | 0.00 | 37 | 1022.7 |
| 20260906170351 | 82 | 88 | 3.0 | 6.0 | 0.00 | 0.00 | 0.00 | 35 | 1022.7 |
| 20260906170032 | 82 | 94 | 2.0 | 8.0 | 0.00 | 0.00 | 0.00 | 36 | 1023.6 |
| 20260906165851 | 82 | 91 | 3.0 | 7.0 | 0.00 | 0.00 | 0.00 | 37 | 1022.9 |
| 20260906165349 | 83 | 79 | 3.0 | 7.0 | 0.00 | 0.00 | 0.00 | 35 | 1022.9 |
| 20260906164850 | 83 | 117 | 2.0 | 7.0 | 0.00 | 0.00 | 0.00 | 36 | 1022.9 |
| 20260906164531 | 83 | 104 | 2.0 | 6.0 | 0.00 | 0.00 | 0.00 | 36 | 1023.6 |
| 20260906164350 | 84 | 52 | 0.0 | 4.0 | 0.00 | 0.00 | 0.00 | 36 | 1022.7 |
| 20260906163846 | 82 | 126 | 1.0 | 5.0 | 0.00 | 0.00 | 0.00 | 37 | 1022.9 |
| 20260906163040 | 81 | 118 | 2.0 | 6.0 | 0.00 | 0.00 | 0.00 | 35 | 1023.6 |
| 20260906162845 | 81 | 87 | 1.0 | 6.0 | 0.00 | 0.00 | 0.00 | 36 | 1022.9 |
| 20260906161845 | 80 | 84 | 3.0 | 11.0 | 0.00 | 0.00 | 0.00 | 36 | 1022.7 |
| 20260906161530 | 81 | 78 | 3.0 | 9.0 | 0.00 | 0.00 | 0.00 | 39 | 1023.5 |
| 20260906161345 | 81 | 108 | 2.0 | 5.0 | 0.00 | 0.00 | 0.00 | 38 | 1022.7 |
| 20260906160846 | 81 | 61 | 2.0 | 5.0 | 0.00 | 0.00 | 0.00 | 37 | 1022.9 |
| 20260906160344 | 81 | 158 | 2.0 | 12.0 | 0.00 | 0.00 | 0.00 | 34 | 1023.0 |
| 20260906160032 | 81 | 135 | 2.0 | 13.0 | 0.00 | 0.00 | 0.00 | 36 | 1023.6 |
| 20260906155341 | 81 | 72 | 1.0 | 5.0 | 0.00 | 0.00 | 0.00 | 36 | 1022.7 |
| 20260906154840 | 82 | 143 | 1.0 | 5.0 | 0.00 | 0.00 | 0.00 | 36 | 1022.7 |
| 20260906154531 | 81 | 123 | 0.0 | 6.0 | 0.00 | 0.00 | 0.00 | 34 | 1023.4 |
| 20260906154341 | 81 | 146 | 1.0 | 5.0 | 0.00 | 0.00 | 0.00 | 36 | 1022.6 |
| 20260906153841 | 81 | 206 | 1.0 | 4.0 | 0.00 | 0.00 | 0.00 | 36 | 1022.7 |
| 20260906153340 | 80 | 155 | 2.0 | 6.0 | 0.00 | 0.00 | 0.00 | 37 | 1022.6 |
| 20260906153033 | 80 | 154 | 1.0 | 7.0 | 0.00 | 0.00 | 0.00 | 38 | 1023.5 |
| 20260906152842 | 80 | 151 | 2.0 | 6.0 | 0.00 | 0.00 | 0.00 | 38 | 1022.7 |
| 20260906152341 | 80 | 147 | 1.0 | 4.0 | 0.00 | 0.00 | 0.00 | 38 | 1022.6 |
| 20260906151841 | 79 | 124 | 1.0 | 4.0 | 0.00 | 0.00 | 0.00 | 40 | 1022.6 |
| 20260906151536 | 78 | 186 | 0.0 | 3.0 | 0.00 | 0.00 | 0.00 | 37 | 1023.2 |
| 20260906151341 | 78 | 110 | 1.0 | 3.0 | 0.00 | 0.00 | 0.00 | 39 | 1022.6 |
| 20260906150839 | 78 | 121 | 1.0 | 4.0 | 0.00 | 0.00 | 0.00 | 40 | 1022.6 |
| 20260906150341 | 78 | 103 | 1.0 | 4.0 | 0.00 | 0.00 | 0.00 | 40 | 1022.6 |
| 20260906150032 | 76 | 282 | 0.0 | 2.0 | 0.00 | 0.00 | 0.00 | 40 | 1023.1 |
| 20260906144836 | 75 | 299 | 1.0 | 4.0 | 0.00 | 0.00 | 0.00 | 43 | 1022.5 |
| 20260906144515 | 74 | 272 | 1.0 | 4.0 | 0.00 | 0.00 | 0.00 | 43 | 1023.0 |
| 20260906144337 | 75 | 264 | 1.0 | 4.0 | 0.00 | 0.00 | 0.00 | 44 | 1022.5 |
| 20260906143835 | 74 | 305 | 0.0 | 3.0 | 0.00 | 0.00 | 0.00 | 44 | 1022.5 |
| 20260906143334 | 73 | 303 | 0.0 | 4.0 | 0.00 | 0.00 | 0.00 | 45 | 1022.5 |
| 20260906143012 | 72 | 302 | 0.0 | 7.0 | 0.00 | 0.00 | 0.00 | 45 | 1023.0 |
| 20260906142834 | 73 | 323 | 1.0 | 6.0 | 0.00 | 0.00 | 0.00 | 45 | 1022.4 |
| 20260906141834 | 72 | 254 | 0.0 | 4.0 | 0.00 | 0.00 | 0.00 | 46 | 1022.3 |
| 20260906141520 | 71 | 268 | 0.0 | 4.0 | 0.00 | 0.00 | 0.00 | 46 | 1022.9 |
| 20260906141333 | 72 | 282 | 0.0 | 4.0 | 0.00 | 0.00 | 0.00 | 47 | 1022.1 |
| 20260906140832 | 71 | 290 | 0.0 | 3.0 | 0.00 | 0.00 | 0.00 | 47 | 1022.3 |
| 20260906140334 | 71 | 285 | 0.0 | 2.0 | 0.00 | 0.00 | 0.00 | 47 | 1022.3 |
| 20260906140028 | 70 | 317 | 0.0 | 3.0 | 0.00 | 0.00 | 0.00 | 49 | 1022.9 |
| 20260906135834 | 70 | 314 | 0.0 | 3.0 | 0.00 | 0.00 | 0.00 | 50 | 1022.3 |
| 20260906135336 | 69 | 333 | 0.0 | 3.0 | 0.00 | 0.00 | 0.00 | 51 | 1022.3 |
| 20260906134828 | 69 | 306 | 0.0 | 3.0 | 0.00 | 0.00 | 0.00 | 52 | 1022.1 |
| 20260906134527 | 68 | 335 | 0.0 | 3.0 | 0.00 | 0.00 | 0.00 | 52 | 1022.7 |
| 20260906134322 | 68 | 343 | 0.0 | 3.0 | 0.00 | 0.00 | 0.00 | 54 | 1022.0 |
| 20260906133311 | 66 | 300 | 0.0 | 1.0 | 0.00 | 0.00 | 0.00 | 53 | 1022.1 |
| 20260906133008 | 65 | 298 | 0.0 | 1.0 | 0.00 | 0.00 | 0.00 | 54 | 1022.8 |
| 20260906132804 | 65 | 300 | 0.0 | 3.0 | 0.00 | 0.00 | 0.00 | 54 | 1022.1 |
| 20260906131748 | 64 | 323 | 0.0 | 3.0 | 0.00 | 0.00 | 0.00 | 57 | 1021.9 |
| 20260906131516 | 63 | 338 | 0.0 | 3.0 | 0.00 | 0.00 | 0.00 | 58 | 1022.5 |
| 20260906130736 | 62 | 313 | 1.0 | 3.0 | 0.00 | 0.00 | 0.00 | 61 | 1021.8 |
| 20260906130231 | 60 | 269 | 0.0 | 3.0 | 0.00 | 0.00 | 0.00 | 64 | 1021.8 |
| 20260906130026 | 59 | 304 | 0.0 | 3.0 | 0.00 | 0.00 | 0.00 | 65 | 1022.5 |
| 20260906125724 | 59 | 327 | 0.0 | 3.0 | 0.00 | 0.00 | 0.00 | 67 | 1021.9 |
| 20260906124527 | 56 | 345 | 0.0 | 0.0 | 0.00 | 0.00 | 0.00 | 72 | 1022.4 |
| 20260906124205 | 56 | 354 | 0.0 | 0.0 | 0.00 | 0.00 | 0.00 | 75 | 1021.8 |
| 20260906123659 | 56 | 359 | 0.0 | 0.0 | 0.00 | 0.00 | 0.00 | 81 | 1021.8 |
| 20260906123153 | 56 | 359 | 0.0 | 0.0 | 0.00 | 0.00 | 0.00 | 81 | 1021.8 |
| 20260906123033 | 55 | 355 | 0.0 | 0.0 | 0.00 | 0.00 | 0.00 | 80 | 1022.3 |
| 20260906122647 | 56 | 359 | 0.0 | 0.0 | 0.00 | 0.00 | 0.00 | 81 | 1021.8 |
| 20260906121634 | 56 | 359 | 0.0 | 0.0 | 0.00 | 0.00 | 0.00 | 81 | 1021.8 |
| 20260906121513 | 56 | 355 | 0.0 | 0.0 | 0.00 | 0.00 | 0.00 | 80 | 1022.3 |
| 20260906121128 | 56 | 359 | 0.0 | 0.0 | 0.00 | 0.00 | 0.00 | 81 | 1021.7 |
| 20260906120115 | 57 | 323 | 0.0 | 0.0 | 0.00 | 0.00 | 0.00 | 79 | 1021.8 |
| 20260906120019 | 57 | 318 | 0.0 | 0.0 | 0.00 | 0.00 | 0.00 | 79 | 1022.2 |
| 20260906115610 | 57 | 323 | 0.0 | 0.0 | 0.00 | 0.00 | 0.00 | 79 | 1021.7 |
| 20260906115104 | 57 | 323 | 0.0 | 0.0 | 0.00 | 0.00 | 0.00 | 78 | 1021.7 |
| 20260906114542 | 57 | 318 | 0.0 | 0.0 | 0.00 | 0.00 | 0.00 | 78 | 1022.2 |
| 20260906114054 | 58 | 323 | 0.0 | 0.0 | 0.00 | 0.00 | 0.00 | 79 | 1021.5 |
| 20260906113546 | 58 | 323 | 0.0 | 0.0 | 0.00 | 0.00 | 0.00 | 79 | 1021.4 |
| 20260906113040 | 58 | 323 | 0.0 | 0.0 | 0.00 | 0.00 | 0.00 | 80 | 1021.5 |
| 20260906113030 | 57 | 318 | 0.0 | 0.0 | 0.00 | 0.00 | 0.00 | 79 | 1022.2 |
| 20260906112028 | 58 | 323 | 0.0 | 0.0 | 0.00 | 0.00 | 0.00 | 79 | 1021.4 |
| 20260906111533 | 58 | 318 | 0.0 | 0.0 | 0.00 | 0.00 | 0.00 | 78 | 1022.0 |
| 20260906111523 | 58 | 323 | 0.0 | 0.0 | 0.00 | 0.00 | 0.00 | 78 | 1021.3 |
| 20260906110019 | 58 | 318 | 0.0 | 0.0 | 0.00 | 0.00 | 0.00 | 78 | 1021.9 |
| 20260906110004 | 59 | 323 | 0.0 | 0.0 | 0.00 | 0.00 | 0.00 | 79 | 1021.2 |
| 20260906105458 | 58 | 323 | 0.0 | 0.0 | 0.00 | 0.00 | 0.00 | 80 | 1021.2 |
| 20260906104527 | 58 | 318 | 0.0 | 0.0 | 0.00 | 0.00 | 0.00 | 78 | 1021.9 |
| 20260906104446 | 58 | 323 | 0.0 | 0.0 | 0.00 | 0.00 | 0.00 | 78 | 1021.2 |
| 20260906103940 | 59 | 323 | 0.0 | 0.0 | 0.00 | 0.00 | 0.00 | 77 | 1021.0 |
| 20260906103434 | 59 | 0 | 0.0 | 0.0 | 0.00 | 0.00 | 0.00 | 76 | 1021.2 |
| 20260906103028 | 59 | 360 | 0.0 | 0.0 | 0.00 | 0.00 | 0.00 | 75 | 1021.9 |
| 20260906102929 | 60 | 0 | 0.0 | 0.0 | 0.00 | 0.00 | 0.00 | 76 | 1021.2 |
| 20260906102422 | 60 | 0 | 0.0 | 0.0 | 0.00 | 0.00 | 0.00 | 75 | 1021.3 |
| 20260906101916 | 61 | 0 | 0.0 | 0.0 | 0.00 | 0.00 | 0.00 | 74 | 1021.2 |
| 20260906101531 | 61 | 360 | 0.0 | 0.0 | 0.00 | 0.00 | 0.00 | 73 | 1021.9 |
| 20260906101410 | 61 | 0 | 0.0 | 0.0 | 0.00 | 0.00 | 0.00 | 73 | 1021.3 |
| 20260906100904 | 62 | 323 | 0.0 | 0.0 | 0.00 | 0.00 | 0.00 | 72 | 1021.4 |
| 20260906100032 | 62 | 318 | 0.0 | 0.0 | 0.00 | 0.00 | 0.00 | 71 | 1022.2 |
| 20260906095346 | 62 | 323 | 0.0 | 0.0 | 0.00 | 0.00 | 0.00 | 71 | 1021.7 |
| 20260906094840 | 62 | 323 | 0.0 | 0.0 | 0.00 | 0.00 | 0.00 | 71 | 1021.7 |
| 20260906094536 | 62 | 318 | 0.0 | 0.0 | 0.00 | 0.00 | 0.00 | 70 | 1022.4 |
| 20260906093828 | 62 | 323 | 0.0 | 0.0 | 0.00 | 0.00 | 0.00 | 70 | 1021.5 |
| 20260906093028 | 61 | 57 | 0.0 | 2.0 | 0.00 | 0.00 | 0.00 | 70 | 1022.4 |
| 20260906092311 | 62 | 65 | 0.0 | 1.0 | 0.00 | 0.00 | 0.00 | 68 | 1021.7 |
| 20260906091804 | 63 | 332 | 0.0 | 1.0 | 0.00 | 0.00 | 0.00 | 67 | 1021.5 |
| 20260906091536 | 63 | 326 | 0.0 | 1.0 | 0.00 | 0.00 | 0.00 | 65 | 1022.2 |
| 20260906091258 | 63 | 332 | 0.0 | 1.0 | 0.00 | 0.00 | 0.00 | 65 | 1021.5 |
| 20260906090752 | 63 | 332 | 0.0 | 0.0 | 0.00 | 0.00 | 0.00 | 65 | 1021.4 |
| 20260906090246 | 63 | 332 | 0.0 | 0.0 | 0.00 | 0.00 | 0.00 | 66 | 1021.4 |
| 20260906090032 | 63 | 326 | 0.0 | 0.0 | 0.00 | 0.00 | 0.00 | 66 | 1022.1 |
| 20260906085740 | 63 | 332 | 0.0 | 1.0 | 0.00 | 0.00 | 0.00 | 66 | 1021.4 |
| 20260906085234 | 64 | 332 | 0.0 | 1.0 | 0.00 | 0.00 | 0.00 | 63 | 1021.4 |
| 20260906084730 | 63 | 332 | 0.0 | 1.0 | 0.00 | 0.00 | 0.00 | 64 | 1021.3 |
| 20260906084536 | 63 | 336 | 0.0 | 1.0 | 0.00 | 0.00 | 0.00 | 64 | 1021.9 |
| 20260906084222 | 63 | 357 | 0.0 | 1.0 | 0.00 | 0.00 | 0.00 | 67 | 1021.3 |
| 20260906083717 | 63 | 357 | 0.0 | 0.0 | 0.00 | 0.00 | 0.00 | 68 | 1021.3 |
| 20260906083209 | 64 | 359 | 0.0 | 1.0 | 0.00 | 0.00 | 0.00 | 69 | 1021.3 |
| 20260906083033 | 63 | 355 | 0.0 | 1.0 | 0.00 | 0.00 | 0.00 | 70 | 1021.9 |
| 20260906082705 | 64 | 331 | 0.0 | 1.0 | 0.00 | 0.00 | 0.00 | 69 | 1021.3 |
| 20260906082200 | 63 | 359 | 0.0 | 0.0 | 0.00 | 0.00 | 0.00 | 71 | 1021.3 |
| 20260906081652 | 63 | 359 | 0.0 | 0.0 | 0.00 | 0.00 | 0.00 | 72 | 1021.4 |
| 20260906081538 | 63 | 355 | 0.0 | 0.0 | 0.00 | 0.00 | 0.00 | 72 | 1021.9 |
| 20260906081148 | 63 | 359 | 0.0 | 0.0 | 0.00 | 0.00 | 0.00 | 72 | 1021.3 |
| 20260906080134 | 64 | 359 | 0.0 | 3.0 | 0.00 | 0.00 | 0.00 | 72 | 1021.4 |
| 20260906080035 | 63 | 355 | 0.0 | 1.0 | 0.00 | 0.00 | 0.00 | 71 | 1022.0 |
| 20260906075629 | 64 | 359 | 0.0 | 3.0 | 0.00 | 0.00 | 0.00 | 71 | 1021.4 |
| 20260906074617 | 63 | 325 | 0.0 | 3.0 | 0.00 | 0.00 | 0.00 | 72 | 1021.5 |
| 20260906074532 | 63 | 355 | 0.0 | 3.0 | 0.00 | 0.00 | 0.00 | 72 | 1022.1 |
| 20260906074111 | 63 | 341 | 0.0 | 0.0 | 0.00 | 0.00 | 0.00 | 72 | 1021.5 |
| 20260906073058 | 63 | 349 | 0.0 | 1.0 | 0.00 | 0.00 | 0.00 | 72 | 1021.7 |
| 20260906073041 | 63 | 342 | 0.0 | 1.0 | 0.00 | 0.00 | 0.00 | 71 | 1022.3 |
| 20260906072552 | 63 | 349 | 0.0 | 1.0 | 0.00 | 0.00 | 0.00 | 72 | 1021.5 |
| 20260906071541 | 63 | 312 | 0.0 | 2.0 | 0.00 | 0.00 | 0.00 | 72 | 1021.8 |
| 20260906071534 | 63 | 322 | 0.0 | 2.0 | 0.00 | 0.00 | 0.00 | 72 | 1022.5 |
| 20260906071035 | 63 | 335 | 0.0 | 1.0 | 0.00 | 0.00 | 0.00 | 72 | 1021.9 |
| 20260906070529 | 63 | 317 | 0.0 | 1.0 | 0.00 | 0.00 | 0.00 | 71 | 1021.9 |
| 20260906070031 | 64 | 312 | 0.0 | 1.0 | 0.00 | 0.00 | 0.00 | 70 | 1022.4 |
| 20260906070022 | 64 | 317 | 0.0 | 1.0 | 0.00 | 0.00 | 0.00 | 70 | 1021.8 |
| 20260906065516 | 64 | 323 | 0.0 | 1.0 | 0.00 | 0.00 | 0.00 | 70 | 1021.9 |
| 20260906065011 | 64 | 314 | 0.0 | 1.0 | 0.00 | 0.00 | 0.00 | 70 | 1021.9 |
| 20260906064536 | 64 | 309 | 0.0 | 1.0 | 0.00 | 0.00 | 0.00 | 69 | 1022.6 |
| 20260906064505 | 64 | 314 | 0.0 | 1.0 | 0.00 | 0.00 | 0.00 | 69 | 1022.0 |
| 20260906063453 | 64 | 314 | 0.0 | 1.0 | 0.00 | 0.00 | 0.00 | 70 | 1021.9 |
| 20260906063032 | 64 | 309 | 0.0 | 1.0 | 0.00 | 0.00 | 0.00 | 69 | 1022.6 |
| 20260906062948 | 64 | 311 | 0.0 | 1.0 | 0.00 | 0.00 | 0.00 | 70 | 1021.9 |
| 20260906062440 | 64 | 9 | 0.0 | 0.0 | 0.00 | 0.00 | 0.00 | 70 | 1021.9 |
| 20260906061934 | 65 | 9 | 0.0 | 0.0 | 0.00 | 0.00 | 0.00 | 70 | 1021.7 |
| 20260906061533 | 64 | 16 | 0.0 | 0.0 | 0.00 | 0.00 | 0.00 | 69 | 1022.4 |
| 20260906061428 | 64 | 9 | 0.0 | 0.0 | 0.00 | 0.00 | 0.00 | 70 | 1021.8 |
| 20260906060922 | 64 | 32 | 0.0 | 0.0 | 0.00 | 0.00 | 0.00 | 71 | 1021.9 |
| 20260906060416 | 64 | 32 | 0.0 | 0.0 | 0.00 | 0.00 | 0.00 | 72 | 1021.9 |
| 20260906060031 | 63 | 38 | 0.0 | 1.0 | 0.00 | 0.00 | 0.00 | 71 | 1022.6 |
| 20260906055910 | 64 | 32 | 0.0 | 1.0 | 0.00 | 0.00 | 0.00 | 72 | 1021.8 |
| 20260906055403 | 64 | 32 | 0.0 | 1.0 | 0.00 | 0.00 | 0.00 | 72 | 1021.8 |
| 20260906054857 | 64 | 24 | 0.0 | 1.0 | 0.00 | 0.00 | 0.00 | 72 | 1021.9 |
| 20260906054533 | 63 | 16 | 0.0 | 1.0 | 0.00 | 0.00 | 0.00 | 71 | 1022.4 |
| 20260906054352 | 64 | 8 | 0.0 | 1.0 | 0.00 | 0.00 | 0.00 | 72 | 1021.8 |
| 20260906053846 | 65 | 323 | 0.0 | 1.0 | 0.00 | 0.00 | 0.00 | 71 | 1021.8 |
| 20260906053016 | 64 | 318 | 0.0 | 1.0 | 0.00 | 0.00 | 0.00 | 71 | 1022.4 |
| 20260906052833 | 65 | 321 | 0.0 | 1.0 | 0.00 | 0.00 | 0.00 | 72 | 1021.7 |
| 20260906052327 | 65 | 313 | 0.0 | 1.0 | 0.00 | 0.00 | 0.00 | 71 | 1021.8 |
| 20260906051530 | 65 | 309 | 0.0 | 1.0 | 0.00 | 0.00 | 0.00 | 71 | 1022.4 |
| 20260906050303 | 65 | 331 | 0.0 | 0.0 | 0.00 | 0.00 | 0.00 | 72 | 1021.9 |
| 20260906050027 | 64 | 325 | 0.0 | 0.0 | 0.00 | 0.00 | 0.00 | 71 | 1022.6 |
| 20260906045252 | 66 | 323 | 0.0 | 0.0 | 0.00 | 0.00 | 0.00 | 70 | 1021.9 |
| 20260906044745 | 66 | 323 | 0.0 | 0.0 | 0.00 | 0.00 | 0.00 | 69 | 1021.9 |
| 20260906044533 | 66 | 317 | 0.0 | 0.0 | 0.00 | 0.00 | 0.00 | 69 | 1022.6 |
| 20260906044240 | 66 | 323 | 0.0 | 0.0 | 0.00 | 0.00 | 0.00 | 69 | 1022.0 |
| 20260906043733 | 67 | 323 | 0.0 | 1.0 | 0.00 | 0.00 | 0.00 | 68 | 1022.0 |
| 20260906043227 | 67 | 323 | 0.0 | 1.0 | 0.00 | 0.00 | 0.00 | 67 | 1022.0 |
| 20260906043034 | 67 | 317 | 0.0 | 1.0 | 0.00 | 0.00 | 0.00 | 66 | 1022.6 |
| 20260906042721 | 67 | 323 | 0.0 | 0.0 | 0.00 | 0.00 | 0.00 | 66 | 1022.1 |
| 20260906042215 | 68 | 323 | 0.0 | 0.0 | 0.00 | 0.00 | 0.00 | 66 | 1022.1 |
| 20260906041710 | 68 | 323 | 0.0 | 0.0 | 0.00 | 0.00 | 0.00 | 66 | 1022.0 |
| 20260906041535 | 68 | 317 | 0.0 | 0.0 | 0.00 | 0.00 | 0.00 | 65 | 1022.8 |
| 20260906041204 | 68 | 323 | 0.0 | 0.0 | 0.00 | 0.00 | 0.00 | 65 | 1022.0 |
| 20260906040656 | 69 | 323 | 0.0 | 1.0 | 0.00 | 0.00 | 0.00 | 64 | 1022.0 |
| 20260906040151 | 69 | 323 | 0.0 | 1.0 | 0.00 | 0.00 | 0.00 | 65 | 1022.1 |
| 20260906040034 | 68 | 317 | 0.0 | 1.0 | 0.00 | 0.00 | 0.00 | 64 | 1022.8 |
| 20260906035646 | 69 | 323 | 0.0 | 1.0 | 0.00 | 0.00 | 0.00 | 65 | 1022.3 |
| 20260906035139 | 69 | 47 | 0.0 | 1.0 | 0.00 | 0.00 | 0.00 | 64 | 1022.3 |
| 20260906034634 | 70 | 276 | 0.0 | 1.0 | 0.00 | 0.00 | 0.00 | 63 | 1022.3 |
| 20260906034535 | 69 | 272 | 0.0 | 1.0 | 0.00 | 0.00 | 0.00 | 63 | 1022.9 |
| 20260906033622 | 69 | 88 | 0.0 | 2.0 | 0.00 | 0.00 | 0.00 | 63 | 1022.0 |
| 20260906033115 | 69 | 83 | 0.0 | 2.0 | 0.00 | 0.00 | 0.00 | 64 | 1021.9 |
| 20260906033030 | 69 | 36 | 0.0 | 2.0 | 0.00 | 0.00 | 0.00 | 63 | 1022.4 |
| 20260906032612 | 69 | 81 | 0.0 | 2.0 | 0.00 | 0.00 | 0.00 | 64 | 1021.9 |
| 20260906032108 | 70 | 39 | 0.0 | 3.0 | 0.00 | 0.00 | 0.00 | 63 | 1021.8 |
| 20260906031608 | 70 | 55 | 0.0 | 3.0 | 0.00 | 0.00 | 0.00 | 62 | 1021.8 |
| 20260906031604 | 70 | 44 | 0.0 | 3.0 | 0.00 | 0.00 | 0.00 | 62 | 1022.3 |
| 20260906031106 | 71 | 53 | 0.0 | 3.0 | 0.00 | 0.00 | 0.00 | 61 | 1021.8 |
| 20260906030605 | 71 | 49 | 1.0 | 6.0 | 0.00 | 0.00 | 0.00 | 60 | 1021.8 |
| 20260906030104 | 71 | 58 | 1.0 | 6.0 | 0.00 | 0.00 | 0.00 | 60 | 1021.7 |
| 20260906030020 | 71 | 68 | 0.0 | 7.0 | 0.00 | 0.00 | 0.00 | 59 | 1022.2 |
| 20260906025602 | 71 | 82 | 0.0 | 4.0 | 0.00 | 0.00 | 0.00 | 60 | 1021.5 |
| 20260906025101 | 71 | 146 | 0.0 | 3.0 | 0.00 | 0.00 | 0.00 | 60 | 1021.4 |
| 20260906024541 | 71 | 108 | 0.0 | 4.0 | 0.00 | 0.00 | 0.00 | 59 | 1022.0 |
| 20260906024100 | 72 | 84 | 1.0 | 4.0 | 0.00 | 0.00 | 0.00 | 60 | 1021.4 |
| 20260906023558 | 72 | 86 | 1.0 | 6.0 | 0.00 | 0.00 | 0.00 | 59 | 1021.3 |
| 20260906023057 | 73 | 89 | 1.0 | 7.0 | 0.00 | 0.00 | 0.00 | 59 | 1021.3 |
| 20260906023029 | 72 | 65 | 0.0 | 8.0 | 0.00 | 0.00 | 0.00 | 58 | 1021.9 |
| 20260906022600 | 73 | 103 | 2.0 | 7.0 | 0.00 | 0.00 | 0.00 | 58 | 1021.3 |
| 20260906022057 | 74 | 53 | 4.0 | 9.0 | 0.00 | 0.00 | 0.00 | 57 | 1021.2 |
| 20260906021559 | 74 | 116 | 6.0 | 11.0 | 0.00 | 0.00 | 0.00 | 56 | 1021.2 |
| 20260906021532 | 74 | 84 | 4.0 | 13.0 | 0.00 | 0.00 | 0.00 | 55 | 1021.7 |
| 20260906020558 | 74 | 117 | 4.0 | 13.0 | 0.00 | 0.00 | 0.00 | 54 | 1020.9 |
| 20260906020057 | 72 | 71 | 1.0 | 11.0 | 0.00 | 0.00 | 0.00 | 46 | 1020.9 |
| 20260906020044 | 72 | 61 | 1.0 | 4.0 | 0.00 | 0.00 | 0.00 | 42 | 1021.5 |
| 20260906015558 | 75 | 350 | 0.0 | 0.0 | 0.00 | 0.00 | 0.00 | 39 | 1020.6 |
| 20260906014547 | 76 | 350 | 0.0 | 0.0 | 0.00 | 0.00 | 0.00 | 36 | 1020.4 |
| 20260906014536 | 76 | 344 | 0.0 | 0.0 | 0.00 | 0.00 | 0.00 | 35 | 1021.0 |
| 20260906014041 | 76 | 350 | 0.0 | 0.0 | 0.00 | 0.00 | 0.00 | 36 | 1020.3 |
| 20260906013535 | 77 | 350 | 0.0 | 1.0 | 0.00 | 0.00 | 0.00 | 34 | 1020.2 |
| 20260906013029 | 77 | 344 | 0.0 | 1.0 | 0.00 | 0.00 | 0.00 | 33 | 1021.0 |
| 20260906012522 | 78 | 340 | 0.0 | 1.0 | 0.00 | 0.00 | 0.00 | 33 | 1020.3 |
| 20260906012017 | 78 | 36 | 0.0 | 0.0 | 0.00 | 0.00 | 0.00 | 34 | 1020.3 |
| 20260906011529 | 78 | 19 | 0.0 | 1.0 | 0.00 | 0.00 | 0.00 | 34 | 1021.0 |
| 20260906011004 | 79 | 30 | 0.0 | 2.0 | 0.00 | 0.00 | 0.00 | 34 | 1020.3 |
| 20260906010459 | 79 | 30 | 0.0 | 2.0 | 0.00 | 0.00 | 0.00 | 34 | 1020.4 |
| 20260906010034 | 79 | 38 | 0.0 | 4.0 | 0.00 | 0.00 | 0.00 | 33 | 1021.0 |
| 20260906005445 | 80 | 84 | 0.0 | 4.0 | 0.00 | 0.00 | 0.00 | 34 | 1020.4 |
| 20260906004541 | 80 | 55 | 0.0 | 3.0 | 0.00 | 0.00 | 0.00 | 34 | 1021.2 |
| 20260906003421 | 81 | 56 | 0.0 | 4.0 | 0.00 | 0.00 | 0.00 | 32 | 1020.7 |
| 20260906003025 | 81 | 60 | 0.0 | 9.0 | 0.00 | 0.00 | 0.00 | 34 | 1021.3 |
| 20260906002915 | 81 | 55 | 2.0 | 8.0 | 0.00 | 0.00 | 0.00 | 34 | 1020.7 |
| 20260906002410 | 81 | 70 | 2.0 | 8.0 | 0.00 | 0.00 | 0.00 | 32 | 1020.6 |
| 20260906001541 | 81 | 98 | 0.0 | 4.0 | 0.00 | 0.00 | 0.00 | 31 | 1021.1 |
| 20260906001359 | 82 | 58 | 1.0 | 4.0 | 0.00 | 0.00 | 0.00 | 31 | 1020.4 |
| 20260906000852 | 82 | 60 | 0.0 | 3.0 | 0.00 | 0.00 | 0.00 | 29 | 1020.3 |
| 20260906000352 | 83 | 0 | 0.0 | 1.0 | 0.00 | 0.00 | 0.00 | 30 | 1020.4 |
| 20260906000034 | 83 | 9 | 0.0 | 2.0 | 0.00 | 0.00 | 0.00 | 30 | 1021.1 |
| 20260905235852 | 83 | 1 | 0.0 | 2.0 | 0.00 | 0.00 | 0.00 | 30 | 1020.4 |
| 20260905235352 | 83 | 326 | 0.0 | 2.0 | 0.00 | 0.00 | 0.00 | 29 | 1020.4 |
| 20260905234851 | 83 | 340 | 0.0 | 1.0 | 0.00 | 0.00 | 0.00 | 28 | 1020.3 |
| 20260905234534 | 82 | 51 | 0.0 | 1.0 | 0.00 | 0.00 | 0.00 | 29 | 1020.9 |
| 20260905234350 | 82 | 45 | 0.0 | 1.0 | 0.00 | 0.00 | 0.00 | 30 | 1020.3 |
| 20260905233347 | 83 | 32 | 1.0 | 4.0 | 0.00 | 0.00 | 0.00 | 30 | 1020.3 |
| 20260905233038 | 82 | 298 | 1.0 | 3.0 | 0.00 | 0.00 | 0.00 | 27 | 1021.0 |
| 20260905232847 | 83 | 46 | 0.0 | 3.0 | 0.00 | 0.00 | 0.00 | 31 | 1020.3 |
| 20260905232349 | 83 | 64 | 0.0 | 3.0 | 0.00 | 0.00 | 0.00 | 29 | 1020.3 |
| 20260905231848 | 83 | 36 | 1.0 | 3.0 | 0.00 | 0.00 | 0.00 | 31 | 1020.3 |
| 20260905231537 | 83 | 327 | 0.0 | 3.0 | 0.00 | 0.00 | 0.00 | 27 | 1021.0 |
| 20260905231347 | 83 | 309 | 0.0 | 3.0 | 0.00 | 0.00 | 0.00 | 29 | 1020.3 |
| 20260905230847 | 84 | 70 | 0.0 | 2.0 | 0.00 | 0.00 | 0.00 | 28 | 1020.3 |
| 20260905230344 | 84 | 37 | 0.0 | 3.0 | 0.00 | 0.00 | 0.00 | 29 | 1020.2 |
| 20260905230033 | 83 | 347 | 0.0 | 3.0 | 0.00 | 0.00 | 0.00 | 28 | 1020.9 |
| 20260905225843 | 83 | 44 | 0.0 | 3.0 | 0.00 | 0.00 | 0.00 | 30 | 1020.2 |
| 20260905225345 | 84 | 42 | 0.0 | 2.0 | 0.00 | 0.00 | 0.00 | 28 | 1020.2 |
| 20260905224842 | 85 | 55 | 1.0 | 3.0 | 0.00 | 0.00 | 0.00 | 27 | 1020.3 |
| 20260905224533 | 85 | 275 | 0.0 | 3.0 | 0.00 | 0.00 | 0.00 | 26 | 1021.0 |
| 20260905224342 | 86 | 278 | 1.0 | 3.0 | 0.00 | 0.00 | 0.00 | 26 | 1020.4 |
| 20260905223843 | 86 | 10 | 1.0 | 5.0 | 0.00 | 0.00 | 0.00 | 28 | 1020.4 |
| 20260905223338 | 85 | 311 | 1.0 | 5.0 | 0.00 | 0.00 | 0.00 | 26 | 1020.4 |
| 20260905223031 | 84 | 305 | 1.0 | 5.0 | 0.00 | 0.00 | 0.00 | 26 | 1021.1 |
| 20260905222325 | 84 | 343 | 1.0 | 6.0 | 0.00 | 0.00 | 0.00 | 29 | 1020.6 |
| 20260905221539 | 83 | 288 | 1.0 | 6.0 | 0.00 | 0.00 | 0.00 | 28 | 1021.3 |
| 20260905220825 | 83 | 319 | 1.0 | 5.0 | 0.00 | 0.00 | 0.00 | 29 | 1020.6 |
| 20260905220322 | 82 | 224 | 1.0 | 4.0 | 0.00 | 0.00 | 0.00 | 29 | 1020.7 |
| 20260905220032 | 81 | 281 | 0.0 | 4.0 | 0.00 | 0.00 | 0.00 | 31 | 1021.4 |
| 20260905215821 | 81 | 274 | 1.0 | 4.0 | 0.00 | 0.00 | 0.00 | 30 | 1020.7 |